Miscellaneous Local Product
Issued by NWS North Platte, NE

Home | Current Version | Previous Version | Text Only | Print | Product List | Glossary On
Versions: 1 2 3 4 5 6 7 8 9 10 11 12 13 14 15 16 17 18 19 20 21 22 23 24 25 26 27 28 29 30 31 32 33 34 35 36 37 38 39 40 41 42 43 44 45 46 47 48 49 50
587
AXUS43 KLBF 271710
MISLBF


WESTERN AND NORTH CENTRAL NEBRASKA HOURLY WEATHER ROUNDUP
NATIONAL WEATHER SERVICE NORTH PLATTE NE
1200 PM CDT SAT AUG 27 2016

NOTE: "FAIR" INDICATES FEW OR NO CLOUDS BELOW 12,000 FEET WITH NO
SIGNIFICANT WEATHER AND/OR OBSTRUCTIONS TO VISIBILITY.

NOTE: STATIONS NOT REPORTING VARIABLES SUCH AS SKY/WEATHER OR
PRESSURE ARE PROVIDED BY RAWS AND APRS NETWORKS AND ARE NOT UNDER
NATIONAL WEATHER SERVICE QUALITY CONTROL.

...OBSERVATIONS IN AND NEAR THE EASTERN PANHANDLE OF NEBRASKA...

CITY           SKY/WX    TMP DP  RH WIND       PRES   REMARKS
PINE RIDGE     SUNNY     67  59  75 SW13      30.00F
CHADRON        SUNNY     73  53  49 SW8       30.00F
ALLIANCE       SUNNY     68  55  63 S6        30.05F
SIDNEY         SUNNY     69  58  67 SW6       30.10S
CRESCENT LAKE    N/A     65  57  75 S6          N/A
$$

...OBSERVATIONS IN NORTHERN NEBRASKA AND FAR SOUTHERN SOUTH DAKOTA...

CITY           SKY/WX    TMP DP  RH WIND       PRES   REMARKS
WINNER         FAIR      78  55  44 S5        29.97F
VALENTINE      SUNNY     74  54  49 S7        30.00F
THEDFORD       SUNNY     76  60  58 S12G21    30.04S
AINSWORTH      SUNNY     73  59  61 SW5       30.02F
O`NEILL        SUNNY     74  60  63 S10       30.02F
ORD            SUNNY     73  60  63 VRB3      30.02S
BROKEN BOW     SUNNY     73  58  59 S9        30.04F
VALENTINE NWR    N/A     69  58  68 SW3         N/A
BUTTE            N/A     71  61  70 S10         N/A
HALSEY           N/A     73  58  59 S6G14       N/A
EWING            N/A     72  64  76 SW3         N/A
$$

...OBSERVATIONS IN SOUTHWEST NEBRASKA AND FAR NORTHEAST COLORADO...

CITY           SKY/WX    TMP DP  RH WIND       PRES   REMARKS
WRAY           CLOUDY   N/A N/A N/A SE6       30.10  FOG
HOLYOKE        CLOUDY    61  59  94 S5        30.10F FOG
IMPERIAL       SUNNY     69  61  75 S13       30.07F
OGALLALA       CLOUDY    71  61  71 SW8       30.06F
NORTH PLATTE   SUNNY     73  59  61 S5        30.05F
MCCOOK         SUNNY     74  60  61 S8        30.05S
LEXINGTON      SUNNY     73  58  60 S3        30.05F
STAPLETON        N/A     74  59  59 CALM        N/A
GOTHENBURG       N/A     70  55  59 CALM        N/A
CALLAWAY         N/A     69  61  77 S8          N/A
$$

...OBSERVATIONS IN CENTRAL LINCOLN COUNTY AREA...

CITY           SKY/WX    TMP DP  RH WIND       PRES   REMARKS
N.P. AIRPORT   SUNNY     73  59  61 S5        30.05F
N.P. DOWNTOWN    N/A     73  62  68 S3          N/A
N.P. SOUTHEAST   N/A     72  60  65 S6          N/A
N.P. HILLCREST   N/A     70  61  73 S3          N/A
$$

...SOME OBSERVATIONS FROM AROUND THE REGION...

CITY           SKY/WX    TMP DP  RH WIND       PRES   REMARKS
DENVER         MOSUNNY   75  41  29 VRB5      30.15F
LARAMIE        SUNNY     67  36  31 SW21G26   30.20F
CHEYENNE       SUNNY     74  31  20 NW10      30.15F
SCOTTSBLUFF    SUNNY     69  56  62 SE6       30.05F
RAPID CITY     SUNNY     70  55  59 S12       29.97F
BISMARCK       SUNNY     71  51  49 VRB3      29.94S
PIERRE         SUNNY     72  55  55 VRB5      29.94F
SIOUX FALLS    CLOUDY    67  62  84 SW3       30.01F
OMAHA          PTSUNNY   76  66  71 S5        30.01F
GRAND ISLAND   SUNNY     75  61  61 VRB5      30.05S
KANSAS CITY    MOSUNNY   81  70  69 S6        30.03F
WICHITA        MOSUNNY   83  71  67 SE10      30.03S
OKLAHOMA CITY  PTSUNNY   84  70  62 SE5       30.05F
DALLAS         MOSUNNY   85  71  63 VRB6      30.03F HX  90
AMARILLO       SUNNY     80  62  54 SW14      30.12F
DODGE CITY     SUNNY     78  61  55 S10G22    30.06F
HAYS           SUNNY     75  61  60 SE9       30.04F
GOODLAND       CLOUDY    63  58  83 CALM      30.09F
$$




USA.gov is the U.S. government's official web portal to all federal, state and local government web resources and services.